Location: ???????
(55.4362°N, 38.1183°E)
Time: 18:12:48
(UTC+00:00)

Cosmos 2237 Rocket - Pass Details

Date: 17 June 2021
Orbit: 835 x 850 km, 71.0° (Epoch: 30 July)

Event Time Altitude Azimuth Distance (km) Brightness Sun altitude
Rises 23:09:31 0° 254° (WSW) 3,383 5.0 -8.3°
Reaches altitude 10° 23:12:15 10° 265° (W) 2,451 4.3 -8.1°
Maximum altitude 23:17:10 30° 326° (NW) 1,463 3.8 -7.8°
Drops below altitude 10° 23:22:06 10° 27° (NNE) 2,462 6.4 -7.5°
Sets 23:24:52 0° 38° (NE) 3,400 7.4 -7.4°
